QPF
0.00 0.00 0.00 0.00 0.00 0.00 0.00 0.00 0.00 0.00 0.00 0.00 0.00 0.00 0.00 0.00 0.00 0.00 0.00 0.00 0.00 0.00 0.00 0.00 0.00 0.00 0.00 0.00 0.00 0.00 0.00 0.00 0.00 0.00 0.00 0.00 0.00 0.00 0.00 0.00 0.00 0.00
0.00 0.00 0.00 0.00 0.00 0.00 0.00 0.00 0.00 0.00 0.00 0.00 0.00 0.00 0.00 0.00 0.00 0.00 0.00 0.00 0.00 0.00 0.00 0.00 0.00 0.00 0.00 0.00 0.00 0.00 0.00 0.00 0.00 0.00 0.00 0.00 0.00 0.00 0.00 0.00 0.00 0.00
0.00 0.00 0.00 0.00 0.00 0.00 0.00 0.00 0.00 0.00 0.00 0.00 0.00 0.00 0.00 0.00 0.00 0.00 0.00 0.00 0.00 0.00 0.00 0.00 0.00 0.00 0.00 0.00 0.00 0.00 0.00 0.00 0.00 0.00 0.00 0.00 0.00 0.00 0.00 0.00 0.00 0.00
0.00 0.00 0.00 0.00 0.00 0.00 0.00 0.00 0.00 0.00 0.00 0.00 0.00 0.00 0.00 0.00 0.00 0.00 0.00 0.00 0.00 0.00 0.00 0.00 0.00 0.00 0.00 0.00 0.00 0.00 0.00 0.00 0.00 0.00 0.00 0.00 0.00 0.00 0.00 0.00 0.00 0.00
0.00 0.00 0.00 0.00 0.00 0.00 0.00 0.00 0.00 0.00 0.00 0.00 0.00 0.00 0.00 0.00 0.00 0.00 0.00 0.00 0.00 0.00 0.00 0.00 0.00 0.00 0.00 0.00 0.00 0.00 0.00 0.00 0.00 0.00 0.00 0.00 0.00 0.00 0.00 0.00 0.00 0.00
0.00 0.00 0.00 0.00 0.00 0.00 0.00 0.00 0.00 0.00 0.00 0.00 0.00 0.00 0.00 0.00 0.00 0.00 0.00 0.00 0.00 0.00 0.00 0.00 0.00 0.00 0.00 0.00 0.00 0.00 0.00 0.00 0.00 0.00 0.00 0.00 0.00 0.00 0.00 0.00 0.00 0.00
0.00 0.00 0.00 0.00 0.00 0.00 0.00 0.00 0.00 0.00 0.00 0.00 0.00 0.00 0.00 0.00 0.00 0.00 0.00 0.00 0.00 0.00 0.00 0.00 0.00 0.00 0.00 0.00 0.00 0.00 0.00 0.00 0.00 0.00 0.00 0.00 0.00 0.00 0.00 0.00 0.00 0.00
0.00 0.00 0.00 0.00 0.00 0.00 0.00 0.00 0.00 0.00 0.00 0.00 0.00 0.00 0.00 0.00 0.00 0.00 0.00 0.00 0.00 0.00 0.00 0.00 0.00 0.00 0.00 0.00 0.00 0.00 0.00 0.00 0.00 0.00 0.00 0.00 0.00 0.00 0.00 0.00 0.00 0.00
0.00 0.00 0.00 0.00 0.00 0.00 0.00 0.00 0.00 0.00 0.00 0.00 0.00 0.00 0.00 0.00 0.00 0.00 0.00 0.00 0.00 0.00 0.00 0.00 0.00 0.00 0.00 0.00 0.00 0.00 0.00 0.00 0.00 0.00 0.00 0.00 0.00 0.00 0.00 0.00 0.00 0.00
0.00 0.00 0.00 0.00 0.00 0.00 0.00 0.00 0.00 0.00 0.00 0.00 0.00 0.00 0.00 0.00 0.00 0.00 0.00 0.00 0.00 0.00 0.00 0.00 0.00 0.00 0.00 0.00 0.00 0.00 0.00 0.00 0.00 0.00 0.00 0.00 0.00 0.00 0.00 0.00 0.00 0.00
0.00 0.00 0.00 0.00 0.00 0.00 0.00 0.00 0.00 0.00 0.00 0.00 0.00 0.00 0.00 0.00 0.00 0.00 0.00 0.00 0.00 0.00 0.00 0.00 0.00 0.00 0.00 0.00 0.00 0.00 0.00 0.00 0.00 0.00 0.00 0.00 0.00 0.00 0.00 0.00 0.00 0.00
0.00 0.00 0.00 0.00 0.00 0.03 0.00 0.00 0.00 0.00 0.00 0.00 0.02 0.00 0.00 0.00 0.00 0.00 0.00 0.00 0.00 0.00 0.00 0.00 0.00 0.00 0.00 0.00 0.00 0.00 0.00 0.00 0.00 0.00 0.00 0.00 0.00 0.00 0.00 0.00 0.00 0.00
0.00 0.00 0.00 0.00 0.00 0.00 0.00 0.00 0.00 0.00 0.00 0.03 0.04 0.04 0.39 0.04 0.00 0.00 0.00 0.00 0.00 0.00 0.00 0.00 0.00 0.00 0.00 0.00 0.00 0.00 0.00 0.00 0.00 0.00 0.00 0.00 0.00 0.00 0.00 0.00 0.00 0.00
0.00 0.00 0.00 0.00 0.00 0.06 0.02 0.00 0.00 0.00 0.03 0.13 0.31 0.52 0.06 0.03 0.02 0.00 0.00 0.00 0.00 0.00 0.00 0.00 0.00 0.00 0.00 0.00 0.00 0.00 0.00 0.00 0.00 0.00 0.00 0.00 0.00 0.00 0.00 0.00 0.00 0.00
0.00 0.00 0.00 0.00 0.00 0.12 0.26 0.00 0.00 0.00 0.01 0.14 0.50 0.23 0.15 0.28 0.19 0.08 0.01 0.01 0.00 0.00 0.03 0.06 0.00 0.00 0.00 0.00 0.00 0.00 0.00 0.00 0.00 0.00 0.00 0.00 0.00 0.00 0.00 0.00 0.00 0.00
0.00 0.00 0.00 0.00 0.00 0.00 0.00 0.00 0.30 0.92 0.88 0.29 0.19 0.40 0.32 0.42 0.23 0.23 0.11 0.14 0.13 0.01 0.02 0.01 0.01 0.00 0.00 0.00 0.00 0.00 0.00 0.00 0.00 0.00 0.00 0.00 0.00 0.00 0.00 0.00 0.00 0.00
0.00 0.00 0.00 0.00 0.00 0.00 0.00 0.00 0.01 0.00 0.00 0.00 0.01 0.12 0.31 0.21 0.20 0.02 0.01 0.00 0.01 0.00 0.00 0.00 0.00 0.00 0.00 0.00 0.00 0.00 0.00 0.00 0.00 0.00 0.00 0.00 0.00 0.00 0.00 0.00 0.00 0.00
0.00 0.00 0.00 0.00 0.00 0.00 0.00 0.00 0.00 0.00 0.00 0.00 0.00 0.00 0.00 0.03 0.00 0.00 0.00 0.00 0.00 0.00 0.00 0.00 0.00 0.00 0.00 0.00 0.00 0.00 0.00 0.00 0.00 0.00 0.00 0.00 0.00 0.00 0.00 0.00 0.00 0.00
0.00 0.00 0.00 0.00 0.00 0.00 0.00 0.00 0.00 0.00 0.00 0.00 0.00 0.00 0.00 0.00 0.00 0.00 0.00 0.00 0.00 0.00 0.00 0.00 0.00 0.00 0.00 0.00 0.00 0.00 0.00 0.00 0.00 0.00 0.00 0.00 0.00 0.00 0.00 0.00 0.00 0.00
0.00 0.00 0.00 0.00 0.00 0.00 0.00 0.00 0.00 0.00 0.00 0.00 0.00 0.00 0.00 0.00 0.00 0.00 0.00 0.00 0.00 0.00 0.00 0.00 0.00 0.00 0.00 0.00 0.00 0.00 0.00 0.00 0.00 0.00 0.00 0.00 0.00 0.00 0.00 0.00 0.00 0.00
0.00 0.00 0.00 0.00 0.00 0.00 0.00 0.00 0.00 0.00 0.00 0.00 0.00 0.00 0.00 0.00 0.00 0.00 0.00 0.00 0.00 0.00 0.00 0.00 0.00 0.00 0.00 0.00 0.00 0.00 0.00 0.00 0.00 0.00 0.00 0.00 0.00 0.00 0.00 0.00 0.00 0.00
0.00 0.00 0.00 0.00 0.00 0.00 0.00 0.00 0.00 0.00 0.00 0.00 0.00 0.00 0.00 0.00 0.00 0.00 0.00 0.00 0.00 0.00 0.00 0.00 0.00 0.00 0.00 0.00 0.00 0.00 0.00 0.00 0.00 0.00 0.00 0.00 0.00 0.00 0.00 0.00 0.00 0.00
0.00 0.00 0.00 0.00 0.00 0.00 0.00 0.00 0.00 0.00 0.00 0.01 0.02 0.01 0.03 0.00 0.01 0.01 0.00 0.00 0.00 0.00 0.00 0.00 0.00 0.00 0.00 0.00 0.00 0.00 0.00 0.00 0.00 0.00 0.00 0.00 0.00 0.00 0.00 0.00 0.00 0.00
0.00 0.00 0.00 0.00 0.00 0.00 0.00 0.00 0.00 0.00 0.00 0.00 0.09 0.08 0.00 0.00 0.00 0.01 0.00 0.00 0.00 0.00 0.00 0.00 0.00 0.00 0.00 0.00 0.00 0.00 0.00 0.00 0.00 0.00 0.00 0.00 0.00 0.00 0.00 0.00 0.00 0.00
0.00 0.00 0.00 0.00 0.00 0.00 0.00 0.00 0.00 0.00 0.00 0.00 0.00 0.01 0.02 0.14 0.01 0.10 0.12 0.07 0.01 0.00 0.00 0.00 0.00 0.00 0.00 0.00 0.00 0.00 0.00 0.00 0.00 0.00 0.00 0.00 0.00 0.00 0.00 0.00 0.00 0.00
0.00 0.00 0.00 0.00 0.00 0.00 0.00 0.00 0.00 0.00 0.00 0.00 0.04 0.04 0.02 0.02 0.01 0.01 0.01 0.00 0.00 0.00 0.00 0.00 0.00 0.00 0.00 0.00 0.00 0.00 0.00 0.00 0.00 0.00 0.00 0.00 0.00 0.00 0.00 0.00 0.00 0.00
MSLP
1016.83 1016.91 1017.03 1017.27 1017.42 1017.51 1017.74 1017.98 1018.15 1018.34 1018.51 1018.59 1018.71 1018.78 1018.95 1019.07 1019.34 1019.51 1019.62 1019.78 1019.95 1020.15 1020.30 1020.39 1020.51 1020.62 1020.71 1020.78 1020.86 1020.83 1020.98 1021.18 1021.22 1021.30 1021.39 1021.47 1021.59 1021.66 1021.78 1021.83 1021.86 1021.78
1016.74 1016.86 1016.91 1016.98 1017.15 1017.42 1017.62 1017.74 1017.91 1018.07 1018.27 1018.47 1018.47 1018.62 1018.83 1019.03 1019.30 1019.42 1019.62 1019.78 1019.95 1020.10 1020.22 1020.39 1020.51 1020.59 1020.66 1020.71 1020.83 1020.83 1020.95 1021.07 1021.27 1021.34 1021.39 1021.51 1021.54 1021.66 1021.78 1021.86 1021.91 1021.91
1016.62 1016.83 1016.98 1017.03 1017.03 1017.22 1017.47 1017.66 1017.83 1017.91 1017.98 1018.22 1018.39 1018.59 1018.78 1018.98 1019.18 1019.34 1019.51 1019.66 1019.86 1020.07 1020.22 1020.34 1020.51 1020.59 1020.62 1020.66 1020.74 1020.83 1020.95 1021.07 1021.18 1021.27 1021.30 1021.42 1021.51 1021.54 1021.71 1021.74 1021.83 1021.98
1016.42 1016.59 1016.74 1016.86 1016.91 1017.03 1017.22 1017.54 1017.78 1017.86 1017.98 1018.18 1018.39 1018.54 1018.66 1018.91 1019.07 1019.30 1019.47 1019.62 1019.78 1019.98 1020.18 1020.30 1020.42 1020.54 1020.59 1020.66 1020.71 1020.83 1020.98 1021.10 1021.22 1021.34 1021.39 1021.47 1021.54 1021.59 1021.71 1021.74 1021.86 1021.86
1016.30 1016.42 1016.54 1016.66 1016.78 1016.91 1017.07 1017.30 1017.51 1017.66 1017.83 1017.91 1018.15 1018.42 1018.62 1018.86 1019.03 1019.18 1019.34 1019.51 1019.62 1019.86 1020.03 1020.15 1020.30 1020.47 1020.59 1020.62 1020.66 1020.83 1020.98 1021.15 1021.34 1021.34 1021.34 1021.47 1021.59 1021.71 1021.74 1021.78 1021.86 1021.95
1016.10 1016.27 1016.39 1016.51 1016.62 1016.78 1016.91 1017.03 1017.15 1017.39 1017.59 1017.78 1017.98 1018.18 1018.39 1018.59 1018.78 1018.91 1019.07 1019.30 1019.47 1019.62 1019.83 1019.98 1020.22 1020.39 1020.47 1020.59 1020.62 1020.71 1020.86 1020.91 1021.18 1021.27 1021.27 1021.34 1021.47 1021.59 1021.71 1021.74 1021.83 1021.83
1016.10 1016.18 1016.22 1016.27 1016.39 1016.51 1016.71 1016.74 1016.86 1017.07 1017.27 1017.47 1017.71 1017.98 1018.10 1018.39 1018.59 1018.71 1018.86 1019.03 1019.22 1019.42 1019.62 1019.86 1020.10 1020.34 1020.42 1020.51 1020.54 1020.74 1020.83 1020.98 1021.15 1021.15 1021.22 1021.27 1021.39 1021.51 1021.59 1021.62 1021.66 1021.66
1015.54 1015.62 1015.83 1016.03 1016.15 1016.18 1016.30 1016.39 1016.51 1016.74 1016.98 1017.30 1017.51 1017.62 1017.78 1017.95 1018.15 1018.42 1018.62 1018.83 1019.03 1019.22 1019.42 1019.62 1019.86 1020.07 1020.27 1020.30 1020.47 1020.71 1020.95 1021.10 1021.15 1021.18 1021.22 1021.34 1021.42 1021.47 1021.51 1021.59 1021.66 1021.62
1015.22 1015.30 1015.34 1015.47 1015.74 1015.91 1016.03 1016.07 1016.15 1016.39 1016.62 1016.98 1017.18 1017.39 1017.59 1017.62 1017.74 1018.03 1018.30 1018.51 1018.78 1019.03 1019.22 1019.47 1019.62 1019.91 1020.07 1020.10 1020.30 1020.47 1020.71 1020.95 1021.07 1021.10 1021.22 1021.34 1021.47 1021.51 1021.47 1021.51 1021.59 1021.54
1015.03 1015.07 1015.34 1015.59 1015.66 1015.62 1015.71 1015.86 1016.10 1016.27 1016.42 1016.59 1016.71 1016.98 1017.30 1017.42 1017.51 1017.66 1017.98 1018.22 1018.47 1018.78 1018.98 1019.22 1019.47 1019.71 1019.86 1019.95 1020.07 1020.22 1020.42 1020.66 1020.86 1021.03 1021.18 1021.27 1021.39 1021.39 1021.42 1021.51 1021.51 1021.54
1014.91 1014.95 1015.10 1015.27 1015.42 1015.47 1015.51 1015.62 1015.83 1016.03 1016.27 1016.42 1016.54 1016.78 1016.98 1017.30 1017.54 1017.59 1017.74 1017.91 1018.18 1018.39 1018.62 1018.91 1019.15 1019.34 1019.62 1019.86 1020.03 1020.18 1020.34 1020.59 1020.83 1020.98 1021.10 1021.18 1021.27 1021.34 1021.47 1021.42 1021.42 1021.47
1014.74 1014.83 1014.91 1014.98 1015.07 1015.15 1015.27 1015.47 1015.74 1015.91 1016.03 1016.18 1016.39 1016.59 1016.71 1016.91 1017.18 1017.39 1017.42 1017.59 1017.83 1018.03 1018.27 1018.51 1018.78 1019.07 1019.30 1019.54 1019.86 1020.15 1020.39 1020.62 1020.78 1020.95 1021.07 1021.18 1021.27 1021.30 1021.30 1021.39 1021.42 1021.39
1014.42 1014.47 1014.54 1014.62 1014.71 1014.78 1014.95 1015.15 1015.27 1015.42 1015.59 1015.91 1016.22 1016.47 1016.86 1017.30 1017.22 1017.07 1017.18 1017.30 1017.54 1017.86 1018.10 1018.30 1018.59 1018.86 1019.15 1019.42 1019.66 1019.91 1020.18 1020.47 1020.71 1020.83 1020.98 1021.15 1021.27 1021.27 1021.30 1021.39 1021.39 1021.34
1014.51 1014.34 1014.34 1014.39 1014.47 1014.62 1014.78 1014.83 1014.91 1015.27 1015.74 1016.10 1016.47 1016.78 1016.74 1016.51 1016.71 1017.15 1017.39 1017.42 1017.59 1017.71 1017.91 1018.18 1018.51 1018.71 1018.95 1019.22 1019.47 1019.74 1020.03 1020.27 1020.47 1020.71 1020.86 1021.03 1021.18 1021.27 1021.30 1021.34 1021.34 1021.30
1014.59 1014.42 1014.30 1014.27 1014.34 1014.51 1014.66 1014.74 1015.10 1015.51 1015.78 1016.03 1016.30 1016.47 1016.54 1016.83 1017.18 1017.39 1017.66 1017.54 1017.51 1017.62 1017.91 1018.30 1018.42 1018.59 1018.78 1019.03 1019.34 1019.66 1019.86 1020.15 1020.39 1020.59 1020.78 1020.95 1021.07 1021.15 1021.22 1021.27 1021.27 1021.18
1014.59 1014.42 1014.30 1014.22 1014.30 1014.39 1014.47 1014.59 1014.95 1015.22 1015.27 1015.30 1015.42 1015.42 1015.83 1016.15 1016.39 1016.71 1016.95 1017.18 1017.51 1017.78 1017.95 1018.07 1018.27 1018.39 1018.78 1019.07 1019.18 1019.39 1019.78 1020.07 1020.42 1020.59 1020.71 1020.83 1020.91 1020.98 1021.03 1021.03 1021.03 1020.98
1014.59 1014.39 1014.27 1014.18 1014.15 1014.27 1014.42 1014.54 1014.66 1014.83 1014.91 1014.98 1015.27 1015.59 1015.83 1015.98 1016.15 1016.15 1016.30 1016.66 1016.95 1017.34 1017.78 1017.91 1018.10 1018.42 1018.91 1019.18 1019.42 1019.71 1019.83 1020.10 1020.27 1020.47 1020.66 1020.74 1020.74 1020.78 1020.78 1020.78 1020.66 1020.59
1014.42 1014.27 1014.18 1014.03 1014.03 1014.03 1014.15 1014.22 1014.34 1014.51 1014.62 1014.74 1015.10 1015.51 1015.62 1015.74 1016.03 1016.07 1016.10 1016.39 1016.83 1017.27 1017.66 1017.95 1018.18 1018.66 1019.03 1019.30 1019.59 1019.83 1019.98 1020.03 1020.22 1020.34 1020.54 1020.54 1020.54 1020.59 1020.51 1020.47 1020.47 1020.42
1014.30 1014.10 1013.95 1013.86 1013.83 1013.78 1013.83 1013.98 1014.07 1014.18 1014.30 1014.51 1014.83 1014.98 1015.30 1015.66 1015.74 1015.95 1016.27 1016.51 1016.78 1017.15 1017.62 1018.07 1018.39 1018.95 1019.15 1019.39 1019.66 1019.95 1020.22 1020.18 1020.07 1020.30 1020.34 1020.39 1020.47 1020.47 1020.42 1020.42 1020.39 1020.34
1014.03 1013.91 1013.74 1013.66 1013.71 1013.74 1013.71 1013.74 1013.83 1013.91 1013.95 1014.10 1014.47 1014.86 1015.22 1015.42 1015.54 1015.91 1016.22 1016.47 1016.74 1017.10 1017.59 1018.03 1018.42 1019.07 1019.30 1019.54 1019.83 1020.15 1020.30 1020.30 1020.10 1020.27 1020.30 1020.39 1020.39 1020.34 1020.34 1020.34 1020.34 1020.22
1013.78 1013.66 1013.59 1013.51 1013.54 1013.62 1013.62 1013.54 1013.59 1013.62 1013.74 1013.95 1014.27 1014.62 1015.03 1015.15 1015.34 1015.74 1016.03 1016.30 1016.62 1016.95 1017.47 1018.07 1018.54 1019.30 1019.59 1019.66 1019.86 1020.07 1020.27 1020.18 1019.95 1020.15 1020.10 1020.15 1020.10 1020.10 1020.15 1020.15 1020.15 1020.07
1013.66 1013.51 1013.42 1013.34 1013.34 1013.39 1013.39 1013.34 1013.30 1013.39 1013.51 1013.71 1013.98 1014.39 1014.74 1014.98 1015.22 1015.39 1015.83 1016.22 1016.59 1016.98 1017.51 1018.18 1019.07 1019.42 1019.47 1019.59 1019.78 1019.95 1020.10 1019.78 1019.78 1019.86 1019.86 1019.78 1019.74 1019.74 1019.83 1019.78 1019.78 1019.74
1013.51 1013.39 1013.22 1013.10 1013.07 1013.15 1013.15 1013.15 1013.07 1013.15 1013.34 1013.51 1013.91 1014.18 1014.51 1014.86 1015.07 1015.42 1015.78 1016.18 1016.66 1017.03 1017.47 1018.22 1018.98 1019.42 1019.42 1019.54 1019.71 1019.91 1019.83 1019.47 1019.59 1019.42 1019.39 1019.42 1019.39 1019.47 1019.47 1019.42 1019.42 1019.34
1013.27 1013.15 1013.03 1012.91 1012.86 1012.83 1012.86 1012.86 1012.83 1012.86 1013.03 1013.42 1013.66 1014.07 1014.59 1015.03 1015.51 1015.83 1016.18 1016.62 1016.98 1017.27 1017.51 1018.03 1018.66 1019.30 1019.42 1019.51 1019.62 1019.83 1019.74 1019.47 1019.22 1019.10 1019.10 1019.15 1019.07 1019.15 1019.15 1019.07 1018.98 1019.10
1012.95 1012.86 1012.78 1012.71 1012.59 1012.54 1012.54 1012.59 1012.62 1012.74 1013.10 1013.59 1013.95 1014.39 1014.91 1015.39 1015.71 1016.03 1016.54 1017.03 1017.34 1017.71 1018.03 1018.22 1018.71 1019.22 1019.42 1019.47 1019.62 1019.78 1019.78 1019.34 1019.15 1018.95 1018.98 1018.95 1018.95 1018.86 1018.86 1018.74 1018.62 1018.59
1012.71 1012.71 1012.59 1012.51 1012.30 1012.22 1012.30 1012.27 1012.54 1013.15 1013.51 1013.86 1014.47 1014.95 1015.47 1015.78 1015.91 1016.10 1016.66 1017.27 1017.62 1017.83 1018.22 1018.42 1018.71 1018.95 1019.22 1019.47 1019.54 1019.71 1019.91 1019.62 1019.22 1019.07 1018.91 1018.86 1018.83 1018.78 1018.71 1018.51 1018.34 1018.18
Thickness
5592 5591 5591 5589 5589 5587 5586 5585 5584 5582 5581 5580 5580 5579 5579 5578 5576 5575 5574 5573 5572 5571 5571 5571 5570 5569 5569 5569 5569 5570 5570 5570 5570 5570 5570 5570 5570 5570 5570 5570 5571 5571
5589 5589 5588 5588 5587 5586 5584 5583 5582 5581 5580 5579 5579 5578 5577 5575 5573 5573 5572 5570 5570 5569 5568 5568 5567 5567 5567 5567 5567 5567 5567 5567 5567 5567 5567 5567 5567 5567 5567 5567 5567 5568
5588 5586 5586 5586 5586 5585 5583 5581 5580 5580 5579 5577 5577 5575 5574 5573 5571 5570 5570 5569 5568 5567 5566 5565 5565 5564 5565 5565 5565 5564 5564 5564 5564 5564 5565 5564 5564 5564 5565 5565 5565 5565
5587 5586 5585 5584 5584 5584 5582 5579 5578 5577 5576 5575 5574 5573 5572 5570 5569 5568 5567 5567 5566 5565 5564 5563 5563 5562 5562 5562 5563 5562 5561 5560 5560 5560 5560 5561 5561 5561 5562 5562 5562 5562
5585 5584 5583 5583 5582 5582 5580 5579 5577 5576 5575 5574 5573 5571 5570 5569 5568 5567 5565 5565 5564 5563 5562 5562 5561 5560 5560 5560 5561 5560 5559 5558 5557 5557 5557 5557 5557 5557 5558 5558 5558 5558
5583 5582 5582 5581 5581 5580 5579 5579 5577 5576 5574 5572 5571 5569 5568 5567 5566 5566 5565 5563 5562 5561 5560 5559 5559 5558 5557 5557 5558 5557 5557 5557 5556 5555 5556 5555 5555 5554 5553 5554 5554 5554
5581 5580 5581 5580 5581 5580 5578 5578 5577 5576 5574 5572 5570 5569 5567 5566 5565 5564 5563 5562 5561 5560 5559 5557 5556 5555 5555 5555 5554 5554 5554 5553 5553 5552 5553 5552 5552 5552 5551 5551 5551 5552
5582 5582 5581 5581 5581 5580 5579 5578 5577 5575 5574 5571 5569 5568 5567 5566 5565 5563 5562 5561 5559 5558 5557 5556 5554 5553 5552 5552 5551 5550 5549 5549 5549 5549 5549 5548 5548 5547 5548 5548 5547 5548
5581 5581 5580 5580 5579 5579 5578 5577 5576 5575 5574 5572 5570 5569 5567 5566 5565 5564 5562 5560 5558 5557 5555 5554 5553 5552 5551 5550 5549 5548 5547 5546 5545 5545 5545 5544 5544 5544 5544 5544 5543 5544
5580 5579 5577 5576 5575 5577 5577 5575 5574 5573 5572 5571 5570 5569 5566 5565 5564 5563 5562 5560 5558 5556 5555 5553 5552 5551 5549 5549 5547 5546 5545 5544 5542 5542 5541 5540 5540 5540 5540 5540 5540 5540
5576 5576 5574 5573 5573 5573 5574 5573 5571 5570 5569 5569 5568 5567 5566 5563 5562 5561 5560 5559 5557 5556 5554 5553 5551 5550 5548 5546 5545 5543 5542 5540 5538 5538 5537 5536 5536 5535 5536 5536 5536 5536
5572 5573 5572 5571 5571 5571 5571 5569 5568 5567 5567 5566 5565 5564 5563 5561 5559 5559 5559 5558 5557 5555 5553 5552 5549 5547 5546 5544 5541 5540 5538 5536 5535 5534 5533 5532 5531 5531 5531 5531 5531 5532
5569 5570 5569 5569 5569 5569 5568 5567 5567 5566 5565 5563 5562 5560 5558 5556 5555 5556 5555 5555 5554 5552 5551 5550 5547 5545 5542 5540 5538 5536 5534 5533 5531 5530 5529 5528 5527 5527 5526 5526 5526 5527
5563 5564 5566 5566 5566 5565 5564 5564 5564 5562 5560 5557 5555 5553 5554 5553 5551 5549 5548 5549 5549 5548 5548 5546 5543 5541 5538 5536 5534 5532 5531 5530 5528 5526 5526 5524 5523 5523 5522 5522 5522 5522
5557 5559 5560 5561 5561 5561 5560 5560 5559 5557 5555 5553 5551 5551 5551 5549 5546 5543 5541 5542 5543 5543 5542 5540 5537 5536 5534 5532 5531 5529 5527 5525 5523 5522 5521 5520 5519 5519 5518 5517 5518 5518
5550 5553 5555 5555 5556 5556 5556 5556 5554 5552 5552 5551 5550 5550 5548 5545 5544 5542 5539 5539 5538 5536 5535 5533 5532 5531 5529 5528 5526 5524 5522 5520 5518 5517 5516 5515 5515 5515 5514 5514 5514 5515
5545 5547 5549 5550 5551 5551 5551 5551 5551 5549 5549 5548 5546 5545 5543 5541 5540 5540 5538 5537 5534 5531 5528 5527 5526 5525 5523 5522 5520 5519 5517 5515 5513 5512 5511 5511 5511 5511 5511 5511 5511 5512
5538 5540 5543 5544 5545 5546 5546 5546 5546 5546 5545 5543 5541 5539 5538 5537 5536 5535 5534 5532 5529 5526 5522 5521 5520 5518 5516 5515 5514 5512 5511 5510 5509 5507 5506 5506 5506 5506 5507 5507 5507 5507
5531 5534 5537 5538 5539 5540 5541 5541 5541 5541 5540 5539 5537 5535 5533 5532 5531 5530 5528 5525 5523 5519 5516 5513 5511 5509 5508 5507 5506 5503 5503 5503 5503 5502 5502 5501 5501 5501 5501 5501 5501 5502
5525 5527 5530 5532 5532 5533 5534 5535 5535 5536 5535 5534 5532 5530 5528 5526 5525 5523 5521 5519 5517 5513 5509 5506 5503 5501 5500 5499 5497 5495 5494 5496 5497 5497 5496 5496 5495 5495 5495 5495 5495 5496
5519 5521 5523 5525 5526 5526 5527 5528 5529 5530 5529 5528 5526 5524 5522 5521 5520 5518 5515 5513 5511 5507 5503 5499 5495 5492 5491 5490 5489 5488 5488 5489 5491 5491 5490 5490 5491 5490 5490 5490 5491 5491
5512 5515 5517 5519 5520 5520 5520 5522 5522 5523 5522 5522 5520 5518 5515 5515 5514 5511 5508 5506 5503 5500 5496 5492 5487 5484 5483 5483 5482 5482 5482 5484 5485 5485 5485 5485 5486 5486 5485 5486 5485 5485
5505 5508 5510 5512 5513 5514 5514 5515 5516 5516 5516 5515 5513 5511 5509 5507 5505 5502 5500 5497 5494 5492 5490 5485 5480 5476 5476 5476 5476 5475 5476 5478 5479 5479 5480 5480 5480 5480 5480 5480 5481 5480
5500 5502 5503 5505 5506 5508 5508 5509 5509 5510 5509 5507 5506 5504 5501 5497 5495 5492 5489 5486 5485 5484 5482 5478 5473 5470 5469 5470 5469 5468 5469 5471 5472 5473 5473 5474 5474 5474 5474 5475 5475 5475
5494 5496 5497 5499 5500 5501 5502 5502 5503 5502 5501 5499 5497 5494 5490 5487 5486 5483 5479 5476 5475 5474 5472 5470 5467 5464 5464 5463 5462 5461 5462 5463 5465 5466 5466 5467 5468 5468 5469 5469 5470 5470
5488 5489 5491 5492 5494 5495 5496 5496 5495 5493 5491 5488 5485 5482 5479 5477 5476 5475 5471 5468 5467 5465 5463 5462 5461 5459 5458 5456 5456 5455 5454 5455 5457 5458 5459 5461 5461 5461 5462 5463 5464 5465